COSMOS 654

导读

**COSMOS 654(宇宙654)卫星**是苏联(独联体CIS)于1974年5月17日08:00发射的无人卫星,属于苏联标志性的“宇宙(Kosmos/Cosmos)”卫星系列。该系列涵盖科学研究、军事侦察等多类任务,统一命名方式便于隐藏卫星真实用途,是冷战时期苏联航天探索与军事航天活动的重要组成部分,多数此类卫星现已退役成为空间碎片。

基本信息
目录编号:
7297
目录名称:
COSMOS 654
国际标识:
1974-032A
轨道中心:
EARTH
卫星名称:
COSMOS 654
卫星全名:
--
卫星状态:
在轨 (已飞行19021 天)
发射日期:
1974-05-17 UTC
国别 :
俄罗斯(独联体) (CIS)
星等 :
--
轨道信息
数据来源 国际轨道数据
星历时间: 2026-06-15T00:05:25+0800
6小时前
查看轨道信息
半长轴: 7343.392km
偏心率: 0.0069304
轨道倾角: 64.950°
近地点辐角 327.113°
升交点赤经 299.871°
平近点角 43.835°
近地点: 914.362km
远地点: 1016.148km
周期: 104.377分钟
每日圈数: 13.796146
详细信息
使用方式:
暂无
2D轨道图
3D轨道图
轨道高度分析图
轨道倾角分析图
轨道综合分析图
查看轨道综合分析图